SCP
-0 -0 -0 -0 -0 -0 -0 -0 -0 -0 -0 -0 -0 -0 -0 -0 -0 -0 -0 -0 -0 -0 -0 -0 -0 -0 -0 -0 -0 -0 -0 -0 -0 -0 -0 -0 -0 -0 -0 -0 -0 -0 -0
-0 -0 -0 -0 -0 -0 -0 -0 -0 -0 -0 -0 -0 -0 -0 -0 -0 -0 -0 -0 -0 -0 -0 -0 -0 -0 -0 -0 -0 -0 -0 -0 -0 -0 -0 -0 -0 -0 -0 -0 -0 -0 -0
0 -0 0 -0 -0 -0 -0 -0 -0 -0 -0 -0 -0 -0 -0 -0 -0 -0 -0 -0 -0 -0 -0 -0 -0 -0 -0 -0 -0 -0 -0 -0 -0 -0 -0 0 0 -0 -0 -0 -0 -0 -0
-0 -0 -0 -0 -0 -0 -0 -0 -0 -0 -0 -0 -0 -0 -0 -0 -0 -0 -0 -0 -0 -0 -0 -0 -0 -0 -0 -0 -0 -0 -0 -0 -0 -0 -0 0 0 -0 -0 -0 0 0 0
-0 -0 -0 -0 -0 -0 -0 -0 -0 -0 -0 -0 -0 -0 -0 -0 -0 -0 -0 -0 -0 -0 -0 -0 -0 -0 -0 -0 -0 -0 -0 -0 -0 0 0 0 -0 0 0 0 0 0 0
-0 -0 -0 -0 -0 -0 -0 -0 -0 -0 -0 -0 -0 -0 -0 -0 -0 -0 -0 -0 -0 -0 -0 -0 -0 -0 -0 -0 -0 -0 -0 -0 -0 0 0 0 -0 -0 -0 -0 0 0 0
-0 -0 -0 -0 -0 -0 -0 -0 -0 -0 -0 -0 -0 -0 -0 -0 -0 -0 -0 0 -0 -0 -0 -0 -0 -0 -0 -0 -0 -0 -0 -0 0 0 0 0 0 -0 -0 -0 0 0 0
-0 -0 -0 -0 -0 -0 -0 -0 -0 -0 -0 -0 -0 -0 -0 -0 -0 -0 0 -0 -0 -0 -0 -0 -0 -0 -0 -0 -0 -0 -0 -0 0 0 0 0 0 -0 0 0 0 0 0
-0 -0 -0 -0 -0 -0 -0 -0 -0 -0 -0 -0 -0 -0 -0 -0 -0 -0 -0 -0 -0 0 -0 -0 -0 -0 -0 -0 -0 -0 -0 -0 0 0 0 0 -0 -0 -0 -0 0 0 0
-0 -0 -0 -0 -0 -0 -0 -0 -0 -0 -0 -0 -0 -0 -0 -0 -0 -0 -0 -0 -0 0 -0 -0 -0 -0 -0 -0 -0 -0 -0 -0 0 0 0 0 -0 -0 -0 -0 0 0 0
0 0 0 0 0 0 0 0 0 0 0 0 0 0 0 0 0 0 0 -0 0 0 -0 -0 -0 -0 -0 -0 -0 -0 -0 0 0 0 0 0 -0 -0 -0 -0 -0 -0 -0
0 0 0 0 0 0 0 0 0 0 0 0 0 0 0 0 0 0 0 0 0 0 -0 -0 -0 -0 0 0 0 0 0 0 0 0 0 0 0 0 0 0 0 0 0
0 0 0 0 0 0 0 0 0 0 0 0 0 0 0 0 0 0 0 0 0 0 0 0 0 0 0 0 0 0 0 0 0 0 0 0 0 0 0 0 0 0 0
0 0 0 0 0 0 0 0 0 0 0 0 0 0 0 0 0 0 0 0 0 0 0 0 0 0 0 0 0 0 0 0 0 0 0 0 0 0 0 0 0 0 0
0 0 0 0 0 0 0 0 0 0 0 0 0 0 0 0 0 0 0 0 0 0 0 0 0 0 0 0 0 0 0 0 0 0 0 0 0 0 0 0 0 0 0
0 0 0 0 0 0 0 0 0 0 0 0 0 0 0 0 0 0 0 0 0 0 0 0 0 0 0 0 0 0 0 0 0 0 0 0 0 0 0 0 0 0 0
0 0 0 0 0 0 0 0 0 0 0 0 0 0 0 0 0 0 0 0 0 0 0 0 0 0 0 0 0 0 0 0 0 0 0 0 0 0 0 0 0 0 0
0 0 0 0 0 0 0 0 0 0 0 0 0 0 0 0 0 0 0 0 0 0 0 0 0 0 0 0 0 0 0 0 0 0 0 0 0 0 0 0 0 0 0
0 0 0 0 0 0 0 0 0 0 0 0 0 0 0 0 0 0 0 0 0 0 0 0 0 0 0 0 0 0 0 0 0 0 0 0 0 0 0 0 0 0 0
0 0 0 0 0 0 0 0 0 0 0 0 0 0 0 0 0 0 0 0 0 0 0 0 0 0 0 0 0 0 0 0 0 0 0 0 0 0 0 0 0 0 0
0 0 0 0 0 0 0 0 0 0 0 0 0 0 0 0 0 0 0 0 0 0 0 0 0 0 0 0 0 0 0 0 0 0 0 0 0 0 0 0 0 0 0
0 0 0 0 0 0 0 0 0 0 0 0 0 0 0 0 0 0 0 0 0 0 0 0 0 0 0 0 0 0 0 0 0 0 0 0 0 0 0 0 0 0 0
0 0 0 0 0 0 0 0 0 0 0 0 0 0 0 0 0 0 0 0 0 0 0 0 0 0 0 0 0 0 0 0 0 0 0 0 0 0 0 0 0 0 0
0 0 0 0 0 0 0 0 0 0 0 0 0 0 0 0 0 0 0 0 0 0 0 0 0 0 0 0 0 0 0 0 0 0 0 0 0 0 0 0 0 0 0
0 0 0 0 0 0 0 0 0 0 0 0 0 0 0 0 0 0 0 0 0 0 0 0 0 0 0 0 0 0 0 0 0 0 0 0 0 0 0 0 0 0 0
0 0 0 0 0 0 0 0 0 0 0 0 0 0 0 0 0 0 0 0 0 0 0 0 0 0 0 0 0 0 0 0 0 0 0 0 0 0 0 0 0 0 0
Wind_Speed_500mb
25 24 27 26 28 29 28 27 26 28 29 28 29 31 36 38 40 37 31 29 29 30 29 30 29 25 23 22 22 24 25 27 28 29 31 30 25 21 20 18 21 27 25
21 24 24 26 26 26 25 25 27 27 26 25 24 27 34 37 39 39 36 29 29 27 27 27 26 23 21 19 20 26 27 25 27 30 29 27 30 34 24 20 18 15 15
23 25 23 22 23 22 22 21 23 23 25 23 20 23 29 33 35 36 36 33 28 26 25 24 23 22 19 17 16 19 20 22 25 27 26 26 27 27 29 25 23 21 17
24 24 23 22 22 21 20 20 20 20 21 19 17 20 23 27 31 33 34 33 31 28 26 24 22 19 15 13 12 14 16 19 22 26 26 28 27 27 28 25 25 25 23
25 25 23 23 21 20 19 19 17 17 16 15 13 15 19 24 28 30 31 30 30 30 30 27 25 21 16 11 10 10 13 17 21 23 27 29 30 33 32 32 30 28 25
22 27 24 22 20 18 17 15 15 14 12 10 8 13 15 19 22 24 26 25 25 25 26 27 25 23 19 15 13 12 14 17 21 24 25 28 28 29 29 30 30 29 28
22 23 23 22 17 17 18 15 13 12 10 8 7 11 12 14 17 21 23 28 26 24 23 25 26 25 24 21 20 20 21 22 23 24 26 27 30 31 31 30 29 29 29
26 23 20 20 22 19 16 17 14 12 10 7 7 10 10 8 11 16 23 29 30 28 21 23 23 23 23 23 23 23 24 23 22 23 25 25 28 28 28 29 30 31 32
35 32 28 28 25 24 21 17 15 14 12 10 8 8 7 5 9 16 18 21 29 35 21 23 22 23 21 21 21 20 19 18 18 21 21 22 25 25 26 27 28 29 29
41 41 39 37 32 30 25 22 18 15 15 12 10 8 6 6 8 10 9 14 21 31 29 30 27 25 23 22 22 21 20 17 17 17 18 21 22 24 25 26 30 32 31
42 43 41 36 36 33 28 28 24 19 17 16 13 11 8 7 8 5 2 7 13 21 23 26 26 25 25 25 25 24 20 19 19 20 20 22 22 22 22 22 21 25 26
44 45 44 37 45 41 39 33 25 24 22 20 18 16 12 11 13 12 7 4 6 11 12 15 20 21 18 19 20 19 19 21 19 20 21 22 23 23 22 24 25 24 23
40 43 43 41 40 44 42 39 37 33 30 25 22 22 19 16 23 24 11 8 8 5 7 4 6 9 8 9 11 15 16 15 16 19 21 19 21 25 26 26 28 29 29
41 42 42 42 42 42 41 41 41 41 39 38 33 29 21 21 27 28 15 13 11 11 5 1 1 2 2 4 6 9 10 12 13 14 15 15 18 21 21 25 24 26 29
41 42 44 44 44 45 49 45 45 43 42 40 41 37 35 30 33 22 19 18 16 10 7 5 4 4 3 5 5 5 7 9 11 13 15 15 15 18 20 25 27 29 31
40 41 41 40 42 46 50 48 46 43 40 38 37 38 36 35 35 29 22 20 21 15 10 8 6 6 6 6 5 5 6 8 10 12 14 16 19 20 23 26 27 28 30
41 41 40 40 42 44 47 50 45 44 43 41 40 37 38 39 38 30 28 28 23 17 13 13 8 3 1 1 5 7 7 8 10 12 14 17 18 21 25 26 28 31 32
47 43 41 40 41 44 49 51 49 50 47 46 45 42 41 40 37 34 31 27 20 18 11 8 5 5 5 5 5 6 6 6 7 9 12 14 20 24 28 32 33 35 36
49 45 41 40 41 46 51 50 51 48 47 40 42 39 40 41 36 34 27 23 20 18 13 10 9 8 9 9 10 11 8 7 7 11 13 18 24 28 32 35 38 37 37
54 49 45 43 43 48 53 50 51 49 47 48 44 43 40 38 37 31 27 23 23 19 16 14 12 14 13 12 15 15 12 7 6 9 14 20 26 31 35 37 37 38 38
61 56 51 47 47 50 57 57 57 56 53 50 47 42 38 38 35 30 28 28 27 23 19 17 13 13 16 16 13 14 10 4 3 9 17 22 30 36 37 38 39 40 41
66 59 55 51 51 57 57 59 60 56 53 51 48 43 38 39 34 31 30 31 29 23 20 17 11 11 15 14 6 6 7 8 12 14 12 21 32 34 37 39 41 43 45
74 67 62 55 55 60 62 63 61 59 56 55 53 48 43 40 35 33 33 33 30 25 21 18 14 11 11 12 9 7 4 6 9 11 11 21 26 30 33 36 40 41 44
80 70 63 57 59 62 64 64 62 63 64 59 52 48 48 42 41 40 37 34 30 25 20 15 13 11 8 5 5 2 3 5 4 6 11 18 28 30 33 36 39 44 48
82 73 67 63 63 62 66 64 64 62 60 57 55 55 54 52 49 44 38 33 27 22 18 14 11 7 4 3 6 7 10 12 13 13 13 29 26 31 33 35 40 43 49
82 75 71 70 68 67 67 69 68 65 66 67 66 64 61 60 56 48 41 33 27 21 17 12 8 4 5 7 10 10 10 11 14 16 23 30 32 32 31 36 40 45 51
Wind_Direction_500mb
154 155 143 142 137 133 125 116 108 96 91 81 66 62 58 59 63 67 65 65 68 72 73 75 77 77 74 68 66 63 59 58 51 46 45 46 46 49 54 55 69 68 62
161 153 150 146 140 132 123 115 106 98 89 82 74 58 55 57 59 62 63 68 68 69 72 77 80 82 81 77 66 64 63 64 54 50 47 41 40 43 41 42 42 56 69
168 157 155 152 144 137 123 111 101 93 89 88 82 64 58 57 59 64 66 70 72 69 68 71 75 75 72 71 68 72 61 51 36 31 31 30 27 38 42 33 39 40 34
169 163 159 160 154 146 131 124 119 110 98 98 83 77 67 64 60 57 59 63 68 71 72 72 75 79 80 76 66 58 47 36 27 26 30 31 34 36 36 38 37 37 39
169 171 165 165 164 159 148 140 130 120 108 104 77 79 73 73 65 57 53 52 55 58 63 67 70 72 72 63 65 44 30 19 16 17 26 35 34 36 33 32 30 30 31
170 172 171 172 170 173 167 157 146 136 130 118 100 94 88 79 65 58 52 49 51 54 57 61 67 73 78 71 69 59 42 29 29 35 37 38 36 36 34 32 30 27 24
166 178 179 177 182 182 179 169 162 158 151 135 123 108 104 77 63 53 43 34 34 40 51 55 57 60 62 62 58 55 50 48 44 39 38 35 35 30 28 28 28 27 24
170 174 178 187 179 176 185 185 179 178 170 155 141 134 125 92 59 47 41 40 46 40 53 60 61 62 62 60 56 50 46 45 42 42 42 37 40 37 34 32 29 26 22
173 183 183 207 201 198 196 204 195 191 188 181 171 157 154 119 79 63 58 50 40 37 60 62 62 59 58 59 59 56 53 50 45 46 44 41 38 34 32 27 25 23 21
185 191 197 208 208 211 214 211 208 198 198 202 200 199 180 143 80 105 59 54 46 49 58 54 55 56 58 59 58 53 49 47 44 45 45 46 40 37 35 34 34 26 20
203 205 209 208 209 207 215 223 220 212 209 212 210 212 205 180 154 187 107 81 68 60 70 57 56 52 55 58 58 53 44 41 38 38 38 37 32 29 27 25 24 47 41
210 213 216 220 211 212 216 217 225 229 228 224 224 233 229 210 200 205 209 163 97 87 94 72 49 49 55 52 55 54 52 51 46 44 42 38 35 29 19 14 9 6 1
218 218 220 220 217 219 216 213 212 224 228 218 217 233 229 220 219 205 214 227 188 149 136 96 69 57 49 41 47 46 43 35 33 34 38 29 21 24 25 18 12 6 358
220 222 224 224 224 224 225 209 207 214 223 222 221 223 228 226 243 185 231 224 197 174 176 223 191 356 23 12 34 30 26 26 29 27 24 20 15 15 8 11 10 9 9
222 224 226 226 226 224 222 213 208 210 217 219 219 222 220 221 211 230 240 221 206 208 232 255 253 293 273 333 336 9 358 9 14 17 20 19 14 11 7 11 10 4 358
224 226 227 226 225 224 222 215 212 212 212 210 213 218 217 218 223 229 226 231 209 223 243 235 280 288 311 354 9 37 32 34 38 29 32 28 23 16 11 10 7 4 6
228 228 230 230 227 224 216 208 211 208 210 213 215 213 209 218 215 223 233 221 231 239 233 247 255 234 303 102 92 74 59 48 36 31 24 19 16 14 14 13 9 6 4
229 230 231 231 226 219 211 207 203 206 209 210 211 212 207 208 220 224 229 229 228 219 217 186 199 206 185 158 120 103 81 60 43 32 23 20 17 12 5 3 360 356 354
232 233 234 232 226 215 206 206 202 205 211 213 217 217 222 221 222 228 221 212 210 192 185 191 180 179 179 160 134 121 116 103 66 39 18 13 8 2 359 356 352 349 348
231 232 231 231 223 213 204 204 200 204 205 208 212 212 212 215 221 208 205 202 190 190 190 179 174 157 147 147 143 131 118 97 54 16 359 358 354 355 354 352 352 354 354
230 229 229 226 220 209 204 199 201 204 203 208 209 210 217 209 203 202 204 195 190 189 176 158 155 150 147 148 150 135 138 141 341 346 349 351 356 359 356 354 355 357 358
230 228 226 223 217 208 209 204 201 202 204 205 207 206 207 201 199 202 203 193 179 176 165 159 152 160 155 166 206 172 187 246 276 306 335 351 353 355 353 357 357 358 359
227 225 225 221 217 211 203 202 201 203 205 204 202 205 203 197 197 191 185 179 173 176 177 169 162 163 173 164 181 244 228 246 289 284 309 337 349 354 355 356 356 358 356
226 223 222 219 216 212 205 205 209 210 204 204 202 203 200 193 187 181 179 180 182 178 179 176 169 165 136 114 117 58 354 311 328 297 305 339 356 359 359 359 359 359 355
224 221 219 216 214 208 204 206 209 210 213 207 203 201 196 186 182 181 182 183 181 179 179 173 158 136 93 39 18 3 348 343 338 333 323 335 349 358 355 354 355 355 352
222 219 217 215 212 208 205 208 210 210 211 205 203 199 191 184 182 182 182 181 183 182 176 163 147 105 53 22 16 8 349 339 336 334 331 330 339 344 347 344 349 350 349
Wind_Speed_850mb
25 24 27 26 28 29 28 27 26 28 29 28 29 31 36 38 40 37 31 29 29 30 29 30 29 25 23 22 22 24 25 27 28 29 31 30 25 21 20 18 21 27 25
21 24 24 26 26 26 25 25 27 27 26 25 24 27 34 37 39 39 36 29 29 27 27 27 26 23 21 19 20 26 27 25 27 30 29 27 30 34 24 20 18 15 15
23 25 23 22 23 22 22 21 23 23 25 23 20 23 29 33 35 36 36 33 28 26 25 24 23 22 19 17 16 19 20 22 25 27 26 26 27 27 29 25 23 21 17
24 24 23 22 22 21 20 20 20 20 21 19 17 20 23 27 31 33 34 33 31 28 26 24 22 19 15 13 12 14 16 19 22 26 26 28 27 27 28 25 25 25 23
25 25 23 23 21 20 19 19 17 17 16 15 13 15 19 24 28 30 31 30 30 30 30 27 25 21 16 11 10 10 13 17 21 23 27 29 30 33 32 32 30 28 25
22 27 24 22 20 18 17 15 15 14 12 10 8 13 15 19 22 24 26 25 25 25 26 27 25 23 19 15 13 12 14 17 21 24 25 28 28 29 29 30 30 29 28
22 23 23 22 17 17 18 15 13 12 10 8 7 11 12 14 17 21 23 28 26 24 23 25 26 25 24 21 20 20 21 22 23 24 26 27 30 31 31 30 29 29 29
26 23 20 20 22 19 16 17 14 12 10 7 7 10 10 8 11 16 23 29 30 28 21 23 23 23 23 23 23 23 24 23 22 23 25 25 28 28 28 29 30 31 32
35 32 28 28 25 24 21 17 15 14 12 10 8 8 7 5 9 16 18 21 29 35 21 23 22 23 21 21 21 20 19 18 18 21 21 22 25 25 26 27 28 29 29
41 41 39 37 32 30 25 22 18 15 15 12 10 8 6 6 8 10 9 14 21 31 29 30 27 25 23 22 22 21 20 17 17 17 18 21 22 24 25 26 30 32 31
42 43 41 36 36 33 28 28 24 19 17 16 13 11 8 7 8 5 2 7 13 21 23 26 26 25 25 25 25 24 20 19 19 20 20 22 22 22 22 22 21 25 26
44 45 44 37 45 41 39 33 25 24 22 20 18 16 12 11 13 12 7 4 6 11 12 15 20 21 18 19 20 19 19 21 19 20 21 22 23 23 22 24 25 24 23
40 43 43 41 40 44 42 39 37 33 30 25 22 22 19 16 23 24 11 8 8 5 7 4 6 9 8 9 11 15 16 15 16 19 21 19 21 25 26 26 28 29 29
41 42 42 42 42 42 41 41 41 41 39 38 33 29 21 21 27 28 15 13 11 11 5 1 1 2 2 4 6 9 10 12 13 14 15 15 18 21 21 25 24 26 29
41 42 44 44 44 45 49 45 45 43 42 40 41 37 35 30 33 22 19 18 16 10 7 5 4 4 3 5 5 5 7 9 11 13 15 15 15 18 20 25 27 29 31
40 41 41 40 42 46 50 48 46 43 40 38 37 38 36 35 35 29 22 20 21 15 10 8 6 6 6 6 5 5 6 8 10 12 14 16 19 20 23 26 27 28 30
41 41 40 40 42 44 47 50 45 44 43 41 40 37 38 39 38 30 28 28 23 17 13 13 8 3 1 1 5 7 7 8 10 12 14 17 18 21 25 26 28 31 32
47 43 41 40 41 44 49 51 49 50 47 46 45 42 41 40 37 34 31 27 20 18 11 8 5 5 5 5 5 6 6 6 7 9 12 14 20 24 28 32 33 35 36
49 45 41 40 41 46 51 50 51 48 47 40 42 39 40 41 36 34 27 23 20 18 13 10 9 8 9 9 10 11 8 7 7 11 13 18 24 28 32 35 38 37 37
54 49 45 43 43 48 53 50 51 49 47 48 44 43 40 38 37 31 27 23 23 19 16 14 12 14 13 12 15 15 12 7 6 9 14 20 26 31 35 37 37 38 38
61 56 51 47 47 50 57 57 57 56 53 50 47 42 38 38 35 30 28 28 27 23 19 17 13 13 16 16 13 14 10 4 3 9 17 22 30 36 37 38 39 40 41
66 59 55 51 51 57 57 59 60 56 53 51 48 43 38 39 34 31 30 31 29 23 20 17 11 11 15 14 6 6 7 8 12 14 12 21 32 34 37 39 41 43 45
74 67 62 55 55 60 62 63 61 59 56 55 53 48 43 40 35 33 33 33 30 25 21 18 14 11 11 12 9 7 4 6 9 11 11 21 26 30 33 36 40 41 44
80 70 63 57 59 62 64 64 62 63 64 59 52 48 48 42 41 40 37 34 30 25 20 15 13 11 8 5 5 2 3 5 4 6 11 18 28 30 33 36 39 44 48
82 73 67 63 63 62 66 64 64 62 60 57 55 55 54 52 49 44 38 33 27 22 18 14 11 7 4 3 6 7 10 12 13 13 13 29 26 31 33 35 40 43 49
82 75 71 70 68 67 67 69 68 65 66 67 66 64 61 60 56 48 41 33 27 21 17 12 8 4 5 7 10 10 10 11 14 16 23 30 32 32 31 36 40 45 51
Wind_Direction_850mb
154 155 143 142 137 133 125 116 108 96 91 81 66 62 58 59 63 67 65 65 68 72 73 75 77 77 74 68 66 63 59 58 51 46 45 46 46 49 54 55 69 68 62
161 153 150 146 140 132 123 115 106 98 89 82 74 58 55 57 59 62 63 68 68 69 72 77 80 82 81 77 66 64 63 64 54 50 47 41 40 43 41 42 42 56 69
168 157 155 152 144 137 123 111 101 93 89 88 82 64 58 57 59 64 66 70 72 69 68 71 75 75 72 71 68 72 61 51 36 31 31 30 27 38 42 33 39 40 34
169 163 159 160 154 146 131 124 119 110 98 98 83 77 67 64 60 57 59 63 68 71 72 72 75 79 80 76 66 58 47 36 27 26 30 31 34 36 36 38 37 37 39
169 171 165 165 164 159 148 140 130 120 108 104 77 79 73 73 65 57 53 52 55 58 63 67 70 72 72 63 65 44 30 19 16 17 26 35 34 36 33 32 30 30 31
170 172 171 172 170 173 167 157 146 136 130 118 100 94 88 79 65 58 52 49 51 54 57 61 67 73 78 71 69 59 42 29 29 35 37 38 36 36 34 32 30 27 24
166 178 179 177 182 182 179 169 162 158 151 135 123 108 104 77 63 53 43 34 34 40 51 55 57 60 62 62 58 55 50 48 44 39 38 35 35 30 28 28 28 27 24
170 174 178 187 179 176 185 185 179 178 170 155 141 134 125 92 59 47 41 40 46 40 53 60 61 62 62 60 56 50 46 45 42 42 42 37 40 37 34 32 29 26 22
173 183 183 207 201 198 196 204 195 191 188 181 171 157 154 119 79 63 58 50 40 37 60 62 62 59 58 59 59 56 53 50 45 46 44 41 38 34 32 27 25 23 21
185 191 197 208 208 211 214 211 208 198 198 202 200 199 180 143 80 105 59 54 46 49 58 54 55 56 58 59 58 53 49 47 44 45 45 46 40 37 35 34 34 26 20
203 205 209 208 209 207 215 223 220 212 209 212 210 212 205 180 154 187 107 81 68 60 70 57 56 52 55 58 58 53 44 41 38 38 38 37 32 29 27 25 24 47 41
210 213 216 220 211 212 216 217 225 229 228 224 224 233 229 210 200 205 209 163 97 87 94 72 49 49 55 52 55 54 52 51 46 44 42 38 35 29 19 14 9 6 1
218 218 220 220 217 219 216 213 212 224 228 218 217 233 229 220 219 205 214 227 188 149 136 96 69 57 49 41 47 46 43 35 33 34 38 29 21 24 25 18 12 6 358
220 222 224 224 224 224 225 209 207 214 223 222 221 223 228 226 243 185 231 224 197 174 176 223 191 356 23 12 34 30 26 26 29 27 24 20 15 15 8 11 10 9 9
222 224 226 226 226 224 222 213 208 210 217 219 219 222 220 221 211 230 240 221 206 208 232 255 253 293 273 333 336 9 358 9 14 17 20 19 14 11 7 11 10 4 358
224 226 227 226 225 224 222 215 212 212 212 210 213 218 217 218 223 229 226 231 209 223 243 235 280 288 311 354 9 37 32 34 38 29 32 28 23 16 11 10 7 4 6
228 228 230 230 227 224 216 208 211 208 210 213 215 213 209 218 215 223 233 221 231 239 233 247 255 234 303 102 92 74 59 48 36 31 24 19 16 14 14 13 9 6 4
229 230 231 231 226 219 211 207 203 206 209 210 211 212 207 208 220 224 229 229 228 219 217 186 199 206 185 158 120 103 81 60 43 32 23 20 17 12 5 3 360 356 354
232 233 234 232 226 215 206 206 202 205 211 213 217 217 222 221 222 228 221 212 210 192 185 191 180 179 179 160 134 121 116 103 66 39 18 13 8 2 359 356 352 349 348
231 232 231 231 223 213 204 204 200 204 205 208 212 212 212 215 221 208 205 202 190 190 190 179 174 157 147 147 143 131 118 97 54 16 359 358 354 355 354 352 352 354 354
230 229 229 226 220 209 204 199 201 204 203 208 209 210 217 209 203 202 204 195 190 189 176 158 155 150 147 148 150 135 138 141 341 346 349 351 356 359 356 354 355 357 358
230 228 226 223 217 208 209 204 201 202 204 205 207 206 207 201 199 202 203 193 179 176 165 159 152 160 155 166 206 172 187 246 276 306 335 351 353 355 353 357 357 358 359
227 225 225 221 217 211 203 202 201 203 205 204 202 205 203 197 197 191 185 179 173 176 177 169 162 163 173 164 181 244 228 246 289 284 309 337 349 354 355 356 356 358 356
226 223 222 219 216 212 205 205 209 210 204 204 202 203 200 193 187 181 179 180 182 178 179 176 169 165 136 114 117 58 354 311 328 297 305 339 356 359 359 359 359 359 355
224 221 219 216 214 208 204 206 209 210 213 207 203 201 196 186 182 181 182 183 181 179 179 173 158 136 93 39 18 3 348 343 338 333 323 335 349 358 355 354 355 355 352
222 219 217 215 212 208 205 208 210 210 211 205 203 199 191 184 182 182 182 181 183 182 176 163 147 105 53 22 16 8 349 339 336 334 331 330 339 344 347 344 349 350 349